• In Czech Republic
  • List of Countries
  • For 7 days
  • Water Temperature
  • Satellite Maps
  • Weather Map
  • Weather Widgets
  • user-avatar
    Login

    Hourly Weather Trieste

    Today, 17 January, Wednesday

    Time Temperature Precipitation Wind Pressure Humidity
    00:00 +7°C° 0.1 mm 2 mps 748 mmHg 92%
    01:00 +7°C° 0 mm 2 mps 748 mmHg 92%
    02:00 +7°C° 0.2 mm 2 mps 747 mmHg 92%
    03:00 +7°C° 0.2 mm 2 mps 746 mmHg 92%
    04:00 +7°C° 0.2 mm 2 mps 745 mmHg 92%
    05:00 +7°C° 0.2 mm 2 mps 745 mmHg 92%
    06:00 +7°C° 0.2 mm 2 mps 745 mmHg 92%
    07:00 +8°C° 0.2 mm 1 mps 744 mmHg 92%
    08:00 +7°C° 0.1 mm 2 mps 744 mmHg 91%
    09:00 +7°C° 0.1 mm 3 mps 744 mmHg 90%
    10:00 +7°C° 0.1 mm 3 mps 744 mmHg 89%
    11:00 +7°C° 0.1 mm 3 mps 745 mmHg 87%
    12:00 +7°C° 0.1 mm 3 mps 745 mmHg 85%
    13:00 +7°C° 0.1 mm 3 mps 746 mmHg 83%
    14:00 +7°C° 0.2 mm 3 mps 747 mmHg 79%
    15:00 +7°C° 0.2 mm 3 mps 748 mmHg 75%
    16:00 +6°C° 0.2 mm 4 mps 749 mmHg 71%
    17:00 +5°C° 0 mm 4 mps 750 mmHg 68%
    18:00 +3°C° 0 mm 4 mps 751 mmHg 66%
    19:00 +1°C° 0 mm 5 mps 752 mmHg 63%
    20:00 +1°C° 0 mm 5 mps 753 mmHg 63%
    21:00 +1°C° 0 mm 5 mps 754 mmHg 63%
    22:00 +1°C° 0 mm 5 mps 755 mmHg 62%
    23:00 +1°C° 0 mm 5 mps 755 mmHg 63%

    Tomorrow, 18 January, Thursday

    Time Temperature Precipitation Wind Pressure Humidity
    00:00 +1°C° 0 mm 5 mps 756 mmHg 64%
    01:00 +1°C° 0 mm 5 mps 756 mmHg 65%
    02:00 +1°C° 0 mm 5 mps 756 mmHg 66%
    03:00 +1°C° 0 mm 4 mps 757 mmHg 66%
    04:00 +1°C° 0 mm 4 mps 757 mmHg 66%
    05:00 +2°C° 0 mm 3 mps 757 mmHg 67%
    06:00 +1°C° 0 mm 3 mps 758 mmHg 68%
    07:00 +2°C° 0 mm 2 mps 758 mmHg 69%
    08:00 +3°C° 0 mm 2 mps 758 mmHg 65%
    09:00 +5°C° 0 mm 2 mps 758 mmHg 61%
    10:00 +5°C° 0 mm 3 mps 758 mmHg 58%
    11:00 +7°C° 0 mm 3 mps 757 mmHg 56%
    12:00 +6°C° 0 mm 4 mps 757 mmHg 54%
    13:00 +7°C° 0 mm 4 mps 756 mmHg 53%
    14:00 +7°C° 0 mm 4 mps 756 mmHg 57%
    15:00 +7°C° 0 mm 3 mps 756 mmHg 62%
    16:00 +7°C° 0 mm 3 mps 755 mmHg 67%
    17:00 +5°C° 0 mm 3 mps 755 mmHg 70%
    18:00 +4°C° 0 mm 3 mps 755 mmHg 74%
    19:00 +4°C° 0 mm 3 mps 755 mmHg 78%
    20:00 +4°C° 0 mm 3 mps 755 mmHg 79%
    21:00 +5°C° 0 mm 4 mps 755 mmHg 80%
    22:00 +5°C° 0 mm 4 mps 754 mmHg 81%
    23:00 +6°C° 0 mm 4 mps 754 mmHg 83%

    Day after tomorrow, 19 January, Friday

    Time Temperature Precipitation Wind Pressure Humidity
    00:00 +6°C° 0 mm 4 mps 753 mmHg 86%
    01:00 +7°C° 0 mm 3 mps 753 mmHg 88%
    02:00 +7°C° 0 mm 3 mps 752 mmHg 89%
    03:00 +7°C° 0 mm 3 mps 752 mmHg 90%
    04:00 +7°C° 0 mm 3 mps 752 mmHg 91%
    05:00 +7°C° 0 mm 3 mps 752 mmHg 91%
    06:00 +7°C° 0 mm 3 mps 752 mmHg 92%
    07:00 +7°C° 0 mm 3 mps 752 mmHg 92%
    08:00 +7°C° 0.1 mm 3 mps 752 mmHg 90%
    09:00 +8°C° 0.1 mm 3 mps 752 mmHg 89%
    10:00 +8°C° 0.1 mm 2 mps 752 mmHg 88%
    11:00 +8°C° 0.4 mm 2 mps 752 mmHg 87%
    12:00 +9°C° 0.4 mm 2 mps 752 mmHg 87%
    13:00 +9°C° 0.4 mm 2 mps 751 mmHg 86%
    14:00 +9°C° 0.8 mm 2 mps 752 mmHg 87%
    15:00 +8°C° 0.8 mm 2 mps 752 mmHg 88%
    16:00 +9°C° 0.8 mm 1 mps 752 mmHg 88%
    17:00 +7°C° 0.8 mm 2 mps 752 mmHg 87%
    18:00 +7°C° 0.8 mm 3 mps 753 mmHg 87%
    19:00 +5°C° 0.8 mm 4 mps 753 mmHg 86%
    20:00 +5°C° 0.6 mm 4 mps 754 mmHg 85%
    21:00 +3°C° 0.6 mm 5 mps 754 mmHg 84%
    22:00 +3°C° 0.6 mm 5 mps 755 mmHg 84%
    23:00 +3°C° 0.4 mm 5 mps 755 mmHg 83%

    20 January, Saturday

    Time Temperature Precipitation Wind Pressure Humidity
    00:00 +2°C° 0.4 mm 5 mps 755 mmHg 83%
    01:00 +2°C° 0.4 mm 5 mps 756 mmHg 82%
    02:00 +3°C° 0.1 mm 4 mps 756 mmHg 83%
    03:00 +2°C° 0.1 mm 3 mps 756 mmHg 83%
    04:00 +2°C° 0.1 mm 3 mps 756 mmHg 84%
    05:00 +3°C° 0 mm 2 mps 756 mmHg 84%
    06:00 +2°C° 0 mm 2 mps 756 mmHg 84%
    07:00 +2°C° 0 mm 2 mps 756 mmHg 84%
    08:00 +3°C° 0 mm 2 mps 756 mmHg 81%
    09:00 +4°C° 0 mm 2 mps 756 mmHg 78%
    10:00 +4°C° 0 mm 2 mps 756 mmHg 75%
    11:00 +5°C° 0 mm 2 mps 756 mmHg 72%
    12:00 +7°C° 0 mm 1 mps 755 mmHg 69%
    13:00 +8°C° 0 mm 1 mps 755 mmHg 66%
    14:00 +7°C° 0 mm 1 mps 755 mmHg 71%
    15:00 +7°C° 0 mm 1 mps 755 mmHg 75%
    16:00 +6°C° 0 mm 1 mps 755 mmHg 80%
    17:00 +5°C° 0 mm 1 mps 755 mmHg 83%
    18:00 +4°C° 0 mm 1 mps 755 mmHg 85%
    19:00 +2°C° 0 mm 2 mps 755 mmHg 88%
    20:00 +2°C° 0 mm 2 mps 755 mmHg 87%
    21:00 +2°C° 0 mm 2 mps 756 mmHg 86%
    22:00 +2°C° 0 mm 2 mps 756 mmHg 85%
    23:00 +2°C° 0 mm 2 mps 756 mmHg 84%

    21 January, Sunday

    Time Temperature Precipitation Wind Pressure Humidity
    00:00 +2°C° 0 mm 2 mps 756 mmHg 83%
    01:00 +1°C° 0 mm 3 mps 756 mmHg 82%
    02:00 0°C° 0 mm 3 mps 756 mmHg 81%
    03:00 0°C° 0 mm 3 mps 757 mmHg 80%
    04:00 0°C° 0 mm 3 mps 757 mmHg 79%
    05:00 0°C° 0 mm 3 mps 758 mmHg 78%
    06:00 -1°C° 0 mm 4 mps 758 mmHg 78%
    07:00 -1°C° 0 mm 4 mps 759 mmHg 77%
    08:00 0°C° 0 mm 4 mps 760 mmHg 73%
    09:00 0°C° 0 mm 4 mps 760 mmHg 68%
    10:00 +1°C° 0 mm 4 mps 761 mmHg 63%
    11:00 +3°C° 0 mm 3 mps 761 mmHg 58%
    12:00 +4°C° 0 mm 3 mps 761 mmHg 53%
    13:00 +5°C° 0 mm 3 mps 761 mmHg 48%
    14:00 +6°C° 0 mm 2 mps 762 mmHg 52%
    15:00 +5°C° 0 mm 2 mps 762 mmHg 56%
    16:00 +5°C° 0 mm 2 mps 762 mmHg 59%
    17:00 +4°C° 0 mm 2 mps 763 mmHg 62%
    18:00 +2°C° 0 mm 2 mps 763 mmHg 66%
    19:00 +2°C° 0 mm 1 mps 764 mmHg 69%
    20:00 +2°C° 0 mm 1 mps 764 mmHg 68%
    21:00 +3°C° 0 mm 1 mps 764 mmHg 67%
    22:00 +3°C° 0 mm 1 mps 764 mmHg 67%
    23:00 +3°C° 0 mm 1 mps 764 mmHg 66%

    22 January, Monday

    Time Temperature Precipitation Wind Pressure Humidity
    00:00 +3°C° 0 mm 1 mps 764 mmHg 66%
    01:00 +2°C° 0 mm 1 mps 764 mmHg 66%
    02:00 +2°C° 0 mm 1 mps 763 mmHg 66%
    03:00 +2°C° 0 mm 1 mps 763 mmHg 65%
    04:00 +2°C° 0 mm 1 mps 763 mmHg 65%
    05:00 +2°C° 0 mm 1 mps 762 mmHg 64%
    06:00 +2°C° 0 mm 1 mps 762 mmHg 62%
    07:00 +1°C° 0 mm 1 mps 762 mmHg 60%
    08:00 +3°C° 0 mm 1 mps 762 mmHg 58%
    09:00 +3°C° 0 mm 2 mps 762 mmHg 56%
    10:00 +4°C° 0 mm 2 mps 762 mmHg 54%
    11:00 +5°C° 0 mm 2 mps 761 mmHg 56%
    12:00 +6°C° 0 mm 2 mps 761 mmHg 59%
    13:00 +6°C° 0 mm 2 mps 761 mmHg 61%
    14:00 +6°C° 0 mm 2 mps 760 mmHg 65%
    15:00 +6°C° 0 mm 2 mps 760 mmHg 69%
    16:00 +6°C° 0 mm 1 mps 760 mmHg 73%
    17:00 +5°C° 0 mm 1 mps 760 mmHg 75%
    18:00 +4°C° 0 mm 1 mps 761 mmHg 78%
    19:00 +4°C° 0 mm 1 mps 761 mmHg 81%
    20:00 +4°C° 0 mm 1 mps 761 mmHg 82%
    21:00 +4°C° 0 mm 1 mps 761 mmHg 82%
    22:00 +4°C° 0 mm 1 mps 762 mmHg 83%
    23:00 +4°C° 0 mm 1 mps 762 mmHg 83%
    Show more